Regional Weather Roundup
Issued by NWS Upton, NY

Current Version | Previous Version | Graphics & Text | Print | Product List | Glossary Off
Versions: 1 2 3 4 5 6 7 8 9 10 11 12 13 14 15 16 17 18 19 20 21 22 23 24 25 26 27 28 29 30 31 32 33 34 35 36 37 38 39 40 41 42 43 44 45 46 47 48 49 50

000
ASUS41 KOKX 280805
RWROKX

REGIONAL WEATHER ROUNDUP
NATIONAL WEATHER SERVICE NEW YORK NY
400 AM EDT MON JUL 28 2014

NOTE: "FAIR" INDICATES FEW OR NO CLOUDS BELOW 12,000 FEET WITH NO
SIGNIFICANT WEATHER AND/OR OBSTRUCTIONS TO VISIBILITY.

NYZ071-072-176-178-NJZ106-104-280900-
NEW YORK CITY METRO AREA


CITY           SKY/WX    TMP DP  RH WIND       PRES   REMARKS
CENTRAL PARK   LGT RAIN  70  67  90 VRB6      29.60F
LAGUARDIA APRT RAIN      71  65  81 SW17G29   29.57R
KENNEDY INTL   TSTM      71  65  81 SW24      29.59S
NEWARK/LIBERTY LGT RAIN  71  68  90 S7        29.56F
BRNX BOT. GARD   N/A     72  64  78 SW10      29.58F
TETERBORO      CLOUDY    74  65  73 S12G22    29.56R
$$

NYZ177-179-078>081-280900-
LONG ISLAND NEW YORK

CITY           SKY/WX    TMP DP  RH WIND       PRES   REMARKS
FARMINGDALE    TSTM      70  67  90 S16G36    29.58F FOG
ISLIP          LGT RAIN  75  72  90 S10       29.58S
SHIRLEY        LGT RAIN  73  71  93 S14       29.60S
WESTHAMPTON    CLOUDY    73  72  94 S10       29.61F
MONTAUK POINT    N/A     72  70  93 SE6       29.63F
$$

NYZ052-065-067-280900-
HUDSON VALLEY

CITY           SKY/WX    TMP DP  RH WIND       PRES   REMARKS
WHITE PLAINS   TSTM      73  72  94 S12G17    29.58R FOG
NEWBURGH       MOCLDY    70  66  88 S9        29.58F
MONTGOMERY     CLOUDY    69  67  93 CALM      29.56S
POUGHKEEPSIE   LGT RAIN  70  67  90 SE6       29.55F
ALBANY         TSTM      70  66  87 NW5       29.57F
$$

NJZ001-105-106-008-010-013-015-019>022-104-280900-
NEW JERSEY

CITY           SKY/WX    TMP DP  RH WIND       PRES   REMARKS
NEWARK/LIBERTY LGT RAIN  71  68  90 S7        29.56F
TETERBORO      CLOUDY    74  65  73 S12G22    29.56R
CALDWELL       LGT RAIN  71  67  87 CALM      29.56F
MORRISTOWN     LGT RAIN  72  68  88 CALM      29.55F
SOMERVILLE     CLOUDY    70  67  90 S5        29.53F
LINDEN         RAIN      72  68  89 S5        29.56F
SUSSEX         CLOUDY    70  67  90 CALM      29.56F
ANDOVER          N/A     67  66  97 SW3       29.56F
TRENTON        CLOUDY    68  66  93 MISG      29.55F
MILLVILLE      CLOUDY    70  68  93 CALM      29.58F
ATLANTIC CITY  HVY RAIN  68  67  96 NW13      29.60S FOG
WRIGHTSTOWN    CLOUDY    67  66  98 SW7       29.55S
TOMS RIVER     CLOUDY    66  66 100 CALM      29.56F
BELMAR         CLOUDY    70  64  83 SW3       29.56F
$$

PAZ047>061-062-071-280900-
EASTERN PENNSYLVANIA

CITY           SKY/WX    TMP DP  RH WIND       PRES   REMARKS
PHILADELPHIA   CLOUDY    70  66  87 S8        29.58S
ALLENTOWN      CLOUDY    69  65  86 VRB6      29.56F
SCRANTON       CLOUDY    66  61  84 CALM      29.57F
$$

CTZ002-004>006-009-010-012-RIZ004-006-007-MAZ004-011-015-280900-
SOUTHERN NEW ENGLAND
 IN CT

CITY           SKY/WX    TMP DP  RH WIND       PRES   REMARKS
BRADLEY INTL   CLOUDY    66  64  93 CALM      29.60F
HARTFORD       CLOUDY    72  69  90 E5        29.58F
DANBURY        CLOUDY    72  69  90 S3        29.59S
WTRBRY/OXFORD  CLOUDY    72  66  83 SE6       29.61S
BRIDGEPORT     CLOUDY    74  71  91 S8        29.57F
MERIDEN        CLOUDY    73  70  90 SE3       29.58F
NEW HAVEN      CLOUDY    75  72  88 SE3       29.58S
CHESTER        FOG       72  72 100 S5        29.62S VSB 3/4
GROTON         CLOUDY    71  70  96 E7        29.61F FOG
WILLIMANTIC    FOG       66  65  96 CALM      29.62F VSB 1/2

 IN RI

CITY           SKY/WX    TMP DP  RH WIND       PRES   REMARKS
PROVIDENCE     CLOUDY    72  70  93 S8        29.63F
BLOCK ISLAND   MOCLDY    72  68  88 S8        29.64F
WESTERLY       CLOUDY    72  70  93 SE6       29.63F FOG

 IN MA

CITY           SKY/WX    TMP DP  RH WIND       PRES   REMARKS
BOSTON         CLOUDY    70  69  97 S3        29.64S FOG
WORCESTER      FOG       66  65  96 S8        29.65F VSB 1/4
WESTFIELD      LGT RAIN  66  64  93 N6        29.59F
PROVINCETOWN   MOCLDY    70  68  94 S8        29.66S
NANTUCKET      FOG       69  68  96 S9        29.69S VSB 1/2
$$

ANZ330-335-338-340-345-350-353-355-280900-
COASTAL MARINE OBSERVATIONS


STATION/POSITION TIME  SKY/WX   TEMP    WIND        PRES    VSBY  WAVE
                                AIR SEA DIR/SP/G                  HT/PER
                 (UTC)          (F)     (DEG/KT/KT) (MB)    (MI)  (FT/S)
NY HARB ENTRANCE NOT AVBL
4S FIRE IS       NOT AVBL
23SW MTP         0800            73 71              1002.4          4/ 6
HUDSON CANYON    0700            75 74  200/ 14/ 17 1003.6          4/ 5
EXECUTION ROCKS  0800            74 71  220/ 12/ 16   N/A
WESTERN LI SOUND 0800            74     180/ 10/ 14   N/A           0
CENTRAL LI SOUND 0800            73 72  180/ 14/ 16   N/A           2/ 3
EASTERN LI SOUND 0700            71 67  100/  2/  4   N/A
ROBBINS REEF     0800            70     180/ 16/ 19   N/A
$$


>>>>>>>>>>>>>>>>>>>>>>>>>>>> KEY <<<<<<<<<<<<<<<<<<<<<<<<<<<
>                                                          <
>     SKY/WX - SKY CONDITION/PRESENT WEATHER               <
>     TMP    - TEMPERATURE IN FAHRENHEIT                   <
>     DP     - DEWPOINT IN FAHRENHEIT                      <
>     RH     - RELATIVE HUMIDITY IN PERCENT                <
>     WIND   - DIRECTION AND SPEED IN MPH                  <
>     PRES   - MEAN SEA LEVEL PRESSURE IN INCHES OF HG     <
>     WCI    - WIND CHILL INDEX                            <
>     VSB    - VISIBILITY IN MILES                         <
>     HX     - HEAT INDEX                                  <
>     TC     - TEMPERATURE IN CELSIUS                      <
>     VRB    - VARIABLE WIND DIRECTION                     <
>                                                          <
>>>>>>>>>>>>>>>>>>>>>>>>>>>> KEY <<<<<<<<<<<<<<<<<<<<<<<<<<<





USA.gov is the U.S. government's official web portal to all federal, state and local government web resources and services.